Location: Lahitte
(43.6596°N, 0.6805°E)
Time: 12:31:27
(UTC+00:00)

Cosmos 1805 - Pass Details

Date: 15 May 2026
Orbit: 411 x 414 km, 82.5° (Epoch: 8 June)

Event Time Altitude Azimuth Distance (km) Brightness Sun altitude
Rises 22:04:03 0° 340° (NNW) 2,374 8.0 -22.5°
Reaches altitude 10° 22:06:16 10° 328° (NNW) 1,503 6.7 -22.6°
Enters shadow 22:09:02 27° 270° (W) 837 4.5 -22.9°
